This demonstration page uses our WeatherBlox Daily Observations layout. Learn more.

Hourly Observations for June 4, 2019

Temp ( °F °C ) Dew Point ( °F °C ) Humidity (%) Winds ( mph kmh ) Pressure ( in mb ) Visibility ( mi km ) Precip ( " mm )
12:15 am 00:15 Windy with Storms Likely 65 18.1 60 15.8 87 87 W 24 39 29.85 1011 10 16.09344 0.02 0.508
12:35 am 00:35 Cloudy with Rain 65 18.6 59 15.1 80 80 WSW 22 35 29.83 1010 10 16.09344 0.02 0.508
12:55 am 00:55 Mostly Cloudy with Light Rain 65 18.4 59 15.1 81 81 WSW 21 33 29.85 1011 10 16.09344 0.03 0.762
1:15 am 01:15 Cloudy with Light Rain 66 18.7 58 14.5 77 77 WSW 15 24 29.83 1010 10 16.09344 0.03 0.762
1:35 am 01:35 Mostly Cloudy with Light Rain 65 18.4 59 15 81 81 ENE 12 19 29.71 1006 10 16.09344 0.04 1.016
1:55 am 01:55 Partly Cloudy 65 18.3 59 15.2 82 82 E 3 6 29.71 1006 10 16.09344 0.04 1.016
2:15 am 02:15 Clear 64 17.8 59 15 84 84 E 5 7 29.71 1006 10 16.09344 0 0
2:35 am 02:35 Clear 66 18.7 58 14.5 77 77 E 7 11 29.71 1006 10 16.09344 0 0
2:55 am 02:55 Clear 65 18.2 58 14.5 79 79 ESE 7 11 29.71 1006 10 16.09344 0 0
3:15 am 03:15 Clear 65 18.2 58 14.2 78 78 SE 3 6 29.71 1006 10 16.09344 0 0
3:35 am 03:35 Clear 64 18 59 14.9 82 82 S 5 7 29.71 1006 10 16.09344 0 0
3:55 am 03:55 Clear 65 18.3 58 14.7 80 80 SSW 17 28 29.74 1007 10 16.09344 0 0
4:15 am 04:15 Clear 63 17.3 60 15.5 89 89 SSW 13 20 29.77 1008 10 16.09344 0 0
4:35 am 04:35 Clear 63 17 60 15.7 92 92 SW 15 24 29.77 1008 10 16.09344 0 0
4:55 am 04:55 Clear 62 16.7 60 15.5 93 93 WSW 12 19 29.8 1009 10 16.09344 0 0
5:15 am 05:15 Clear 61 16.2 60 15.4 95 95 W 6 9 29.8 1009 10 16.09344 0 0
5:35 am 05:35 Partly Cloudy 61 16.3 60 15.5 95 95 WSW 7 11 29.8 1009 10 16.09344 0 0
5:55 am 05:55 Partly Cloudy 62 16.6 60 15.3 92 92 WSW 9 15 29.8 1009 10 16.09344 0 0
6:15 am 06:15 Partly Cloudy 62 16.9 60 15.3 90 90 SW 7 11 29.83 1010 10 16.09344 0 0
6:35 am 06:35 Mostly Cloudy 63 17.1 59 15.1 88 88 WSW 8 13 29.8 1009 10 16.09344 0 0
6:55 am 06:55 Partly Cloudy 63 17.1 59 14.9 87 87 Calm 29.8 1009 10 16.09344 0 0
7:15 am 07:15 Sunny 63 17 60 15.5 91 91 ESE 3 6 29.8 1009 10 16.09344 0 0
7:35 am 07:35 Sunny 64 17.5 61 16.2 92 92 Calm 29.83 1010 10 16.09344 0 0
7:55 am 07:55 Sunny 65 18.4 61 15.9 85 85 Calm 29.8 1009 10 16.09344 0 0
8:15 am 08:15 Sunny 66 18.9 60 15.8 82 82 SSW 3 6 29.77 1008 10 16.09344 0 0
8:35 am 08:35 Sunny 67 19.4 60 15.6 79 79 SSW 3 6 29.8 1009 10 16.09344 0 0
8:55 am 08:55 Sunny 68 20 61 16 78 78 W 6 9 29.77 1008 10 16.09344 0 0
9:15 am 09:15 Sunny 68 20.2 61 16.2 78 78 W 6 9 29.77 1008 10 16.09344 0 0
9:35 am 09:35 Sunny 69 20.8 61 15.9 74 74 WNW 6 9 29.8 1009 10 16.09344 0 0
9:55 am 09:55 Sunny 71 21.4 61 16.2 72 72 NW 5 7 29.8 1009 10 16.09344 0 0
10:15 am 10:15 Sunny 72 22.2 62 16.5 70 70 Calm 29.74 1007 10 16.09344 0 0
10:35 am 10:35 Sunny 73 22.5 61 16.1 67 67 Calm 29.74 1007 10 16.09344 0 0
10:55 am 10:55 Sunny 75 23.7 62 16.8 65 65 WSW 5 7 29.74 1007 10 16.09344 0 0
11:15 am 11:15 Sunny 76 24.2 63 17.2 65 65 WSW 8 13 29.74 1007 10 16.09344 0 0
11:35 am 11:35 Sunny 76 24.3 62 16.7 63 63 W 8 13 29.74 1007 10 16.09344 0 0
11:55 am 11:55 Sunny 75 24.1 63 17.3 66 66 WSW 9 15 29.74 1007 10 16.09344 0 0
12:15 pm 12:15 Sunny 77 25 64 17.5 63 63 W 9 15 29.74 1007 10 16.09344 0 0
12:35 pm 12:35 Sunny 78 25.8 64 17.6 61 61 W 10 17 29.71 1006 10 16.09344 0 0
12:55 pm 12:55 Sunny 80 26.6 62 16.8 55 55 W 12 19 29.71 1006 10 16.09344 0 0
1:15 pm 13:15 Sunny 81 27.1 61 16.3 52 52 W 10 17 29.71 1006 10 16.09344 0 0
1:35 pm 13:35 Sunny 82 27.5 62 16.5 51 51 W 12 19 29.68 1005 10 16.09344 0 0
1:55 pm 13:55 Sunny 82 28 61 16.3 49 49 W 12 19 29.68 1005 10 16.09344 0 0
2:15 pm 14:15 Sunny 83 28.5 63 17.1 50 50 WSW 10 17 29.68 1005 10 16.09344 0 0
2:35 pm 14:35 Sunny 83 28.6 62 16.5 48 48 W 13 20 29.68 1005 10 16.09344 0 0
2:55 pm 14:55 Sunny 85 29.2 60 15.8 44 44 W 10 17 29.65 1004 10 16.09344 0 0
3:15 pm 15:15 Sunny 85 29.5 62 16.4 45 45 WSW 9 15 29.65 1004 10 16.09344 0 0
3:35 pm 15:35 Sunny 86 29.9 59 15.2 41 41 WSW 9 15 29.65 1004 10 16.09344 0 0
3:55 pm 15:55 Sunny 86 30.2 59 15.2 40 40 SW 9 15 29.62 1003 10 16.09344 0 0
4:15 pm 16:15 Sunny 87 30.4 59 15.1 39 39 SW 9 15 29.62 1003 10 16.09344 0 0
4:35 pm 16:35 Sunny 87 30.6 59 15.1 39 39 WSW 8 13 29.62 1003 10 16.09344 0 0
4:55 pm 16:55 Sunny 87 30.7 59 14.8 38 38 WSW 8 13 29.62 1003 10 16.09344 0 0
5:15 pm 17:15 Sunny 88 30.9 60 15.3 39 39 WSW 7 11 29.62 1003 10 16.09344 0 0
5:35 pm 17:35 Sunny 88 31 57 13.7 35 35 W 8 13 29.62 1003 10 16.09344 0 0
5:55 pm 17:55 Sunny 88 31 57 14 35 35 W 12 19 29.62 1003 10 16.09344 0 0
6:15 pm 18:15 Sunny 88 31 57 13.7 35 35 W 10 17 29.62 1003 10 16.09344 0 0
6:35 pm 18:35 Sunny 88 31 56 13.2 34 34 W 9 15 29.62 1003 10 16.09344 0 0
6:55 pm 18:55 Sunny 87 30.8 56 13.6 35 35 WSW 8 13 29.62 1003 10 16.09344 0 0
7:15 pm 19:15 Sunny 87 30.3 55 13 35 35 W 9 15 29.62 1003 10 16.09344 0 0
7:35 pm 19:35 Sunny 85 29.3 55 12.7 36 36 W 7 11 29.62 1003 10 16.09344 0 0
7:55 pm 19:55 Sunny 83 28.3 57 13.7 41 41 W 7 11 29.65 1004 10 16.09344 0 0
8:15 pm 20:15 Sunny 81 27.1 59 14.9 47 47 W 6 9 29.65 1004 10 16.09344 0 0
8:35 pm 20:35 Sunny 80 26.7 58 14.5 47 47 W 5 7 29.65 1004 10 16.09344 0 0
8:55 pm 20:55 Sunny 79 26 57 14.1 48 48 W 7 11 29.65 1004 10 16.09344 0 0
9:15 pm 21:15 Clear 79 26.2 56 13.3 45 45 W 8 13 29.65 1004 10 16.09344 0 0
9:35 pm 21:35 Clear 78 25.4 57 13.7 48 48 W 7 11 29.65 1004 10 16.09344 0 0
9:55 pm 21:55 Clear 78 25.6 56 13.4 47 47 W 8 13 29.65 1004 10 16.09344 0 0
10:15 pm 22:15 Clear 76 24.4 58 14.3 53 53 W 8 13 29.71 1006 10 16.09344 0 0
10:35 pm 22:35 Clear 74 23.6 60 15.3 60 60 NNW 12 19 29.71 1006 10 16.09344 0 0
10:55 pm 22:55 Clear 74 23.5 61 16.2 64 64 N 14 22 29.74 1007 10 16.09344 0 0
11:15 pm 23:15 Clear 74 23.3 61 16 64 64 NNW 14 22 29.77 1008 10 16.09344 0 0
11:35 pm 23:35 Clear 73 23 60 15.6 63 63 NNW 15 24 29.77 1008 10 16.09344 0 0
11:55 pm 23:55 Clear 73 22.6 58 14.2 59 59 NNW 13 20 29.74 1007 10 16.09344 0 0

Powered by AerisWeather